Golden Triangle, MS

3:04 PM CDT on April 30, 2017 (GMT -0500)
Golden Triangle Regional

Weather History for KGTR - February, 2013

Change the Weather History Date:

Tuesday, February 19, 2013

  Actual Average Record
Temperature  
Mean Temperature 45 °F -  
Max Temperature 55 °F 57 °F 78 °F (2011)
Min Temperature 33 °F 38 °F 15 °F (2015)
Degree Days  
Heating Degree Days 20    
Moisture  
Dew Point 35 °F    
Average Humidity 68    
Maximum Humidity 88    
Minimum Humidity 35    
Precipitation  
Precipitation 0.17 in - - ()
Sea Level Pressure  
Sea Level Pressure 30.14 in    
Wind  
Wind Speed 6 mph (NW)    
Max Wind Speed 18 mph    
Max Gust Speed 23 mph    
Visibility 10 miles    
Events      
Averages and records for this station are not official NWS values.
T = Trace of Precipitation, MM = Missing Value Source: NWS Daily Summary

Daily Weather History Graph

Daily Weather History Graph

Search for Another Location

Airport or City:

Trip Planner

Search our weather history database for the weather conditions in past years. The results will help you decide how hot, cold, wet, or windy it might be!

Date:

Astronomy

Feb. 19, 2013 Rise Set
Actual Time 6:33 AM CST 5:42 PM CST
Civil Twilight 6:08 AM CST 6:08 PM CST
Nautical Twilight 5:39 AM CST 6:37 PM CST
Astronomical Twilight 5:10 AM CST 7:05 PM CST
Moon 12:23 PM CST (2/19) 1:56 AM CST (2/19)
Length of Visible Light 11h 59m
Length of Day
11h 09m
Waxing Gibbous, 67% of the Moon is Illuminated
Feb 19
Waxing Gibbous
Feb 25
Full
Mar 4
Last Quarter
Mar 11
New
Mar 19
First Quarter

Hourly Weather History & Observations

Time (CST) Temp. Windchill Dew Point Humidity Pressure Visibility Wind Dir Wind Speed Gust Speed Precip Events Conditions
12:15 AM 50.0 °F - 46.4 °F 87% 30.00 in 5.0 mi Calm Calm - 0.10 in   Mostly Cloudy
12:35 AM 50.0 °F - 46.4 °F 87% 29.99 in 10.0 mi Calm Calm - 0.11 in   Overcast
12:55 AM 50.0 °F - 46.4 °F 87% 29.98 in 5.0 mi SE 4.6 mph - 0.12 in   Overcast
1:15 AM 50.0 °F - 46.4 °F 87% 29.98 in 10.0 mi SSE 5.8 mph - 0.03 in   Overcast
1:35 AM 50.0 °F - 46.4 °F 87% 29.95 in 10.0 mi SE 15.0 mph - 0.05 in   Mostly Cloudy
1:55 AM 50.0 °F - 46.4 °F 87% 29.96 in 10.0 mi Calm Calm - 0.05 in   Mostly Cloudy
2:15 AM 50.0 °F - 46.4 °F 87% 29.97 in 10.0 mi Calm Calm - N/A   Mostly Cloudy
2:35 AM 50.0 °F - 46.4 °F 87% 29.98 in 10.0 mi SW 3.5 mph - N/A   Mostly Cloudy
2:55 AM 50.0 °F - 46.4 °F 87% 29.98 in 10.0 mi SW 3.5 mph - N/A   Overcast
3:15 AM 50.0 °F - 46.4 °F 87% 29.98 in 10.0 mi SW 4.6 mph - N/A   Overcast
3:35 AM 50.0 °F - 46.4 °F 87% 29.98 in 10.0 mi WSW 5.8 mph - N/A   Overcast
3:55 AM 51.8 °F - 48.2 °F 88% 30.00 in 5.0 mi WNW 9.2 mph - N/A   Overcast
4:15 AM 50.0 °F - 46.4 °F 87% 30.02 in 8.0 mi NW 10.4 mph 18.4 mph N/A   Overcast
4:35 AM 48.2 °F - 44.6 °F 87% 30.04 in 10.0 mi NNW 12.7 mph 18.4 mph N/A   Overcast
4:55 AM 44.6 °F 38.1 °F 39.2 °F 81% 30.06 in 10.0 mi NNW 13.8 mph 21.9 mph N/A   Mostly Cloudy
5:15 AM 44.6 °F 38.8 °F 37.4 °F 76% 30.07 in 10.0 mi NNW 11.5 mph 17.3 mph N/A   Partly Cloudy
5:50 AM 42.8 °F 38.0 °F 35.6 °F 76% 30.10 in 10.0 mi NW 8.1 mph - N/A   Clear
7:45 AM 42.8 °F 37.5 °F 35.6 °F 76% 30.16 in 10.0 mi NNW 9.2 mph 17.3 mph N/A   Mostly Cloudy
7:50 AM 41.0 °F 35.2 °F 35.6 °F 81% 30.14 in 10.0 mi NW 9.2 mph - N/A   Clear
8:50 AM 44.6 °F 40.7 °F 37.4 °F 76% 30.20 in 10.0 mi NW 6.9 mph - N/A   Partly Cloudy
9:45 AM 46.4 °F 41.5 °F 35.6 °F 66% 30.21 in 10.0 mi NNW 10.4 mph - N/A   Clear
10:45 AM 51.8 °F - 35.6 °F 54% 30.23 in 10.0 mi NW 11.5 mph - N/A   Clear
11:45 AM 51.8 °F - 33.8 °F 50% 30.22 in 10.0 mi NW 13.8 mph 19.6 mph N/A   Clear
12:45 PM 53.6 °F - 32.0 °F 44% 30.21 in 10.0 mi NNW 10.4 mph 18.4 mph N/A   Clear
1:50 PM 55.4 °F - 28.4 °F 36% 30.19 in 10.0 mi WNW 13.8 mph 23.0 mph N/A   Clear
2:50 PM 55.4 °F - 28.4 °F 36% 30.20 in 10.0 mi WNW 11.5 mph 20.7 mph N/A   Clear
3:50 PM 53.6 °F - 26.6 °F 35% 30.21 in 10.0 mi NW 18.4 mph - N/A   Clear
4:50 PM 51.8 °F - 26.6 °F 38% 30.22 in 10.0 mi NNW 8.1 mph - N/A   Clear
6:45 PM 44.6 °F 41.4 °F 21.2 °F 39% 30.23 in 10.0 mi NNW 5.8 mph - N/A   Clear
8:15 PM 41.0 °F 37.1 °F 21.2 °F 45% 30.26 in 10.0 mi NW 5.8 mph - N/A   Clear
8:35 PM 39.2 °F 34.2 °F 23.0 °F 52% 30.26 in 10.0 mi NNW 6.9 mph - N/A   Clear
8:55 PM 39.2 °F 35.0 °F 24.8 °F 56% 30.26 in 10.0 mi NNW 5.8 mph - N/A   Clear
9:15 PM 39.2 °F 33.6 °F 24.8 °F 56% 30.26 in 10.0 mi NNW 8.1 mph - N/A   Clear
9:55 PM 39.2 °F 37.0 °F 23.0 °F 52% 30.28 in 10.0 mi NW 3.5 mph - N/A   Clear
10:15 PM 37.4 °F 34.9 °F 23.0 °F 56% 30.28 in 10.0 mi WNW 3.5 mph - N/A   Clear
10:35 PM 35.6 °F 32.8 °F 24.8 °F 65% 30.28 in 10.0 mi WNW 3.5 mph - N/A   Clear
10:55 PM 35.6 °F 32.8 °F 24.8 °F 65% 30.28 in 10.0 mi WNW 3.5 mph - N/A   Clear
11:15 PM 35.6 °F 31.7 °F 24.8 °F 65% 30.28 in 10.0 mi WNW 4.6 mph - N/A   Clear
11:35 PM 35.6 °F - 24.8 °F 65% 30.26 in 10.0 mi Calm Calm - N/A   Clear
11:55 PM 33.8 °F - 24.8 °F 70% 30.27 in 10.0 mi Calm Calm - N/A   Clear